Weather History for Hill City, KS

Change the Weather History Date:

Tuesday, March 5, 2013

  Actual Average Record
Temperature  
Mean Temperature 32 °F 38 °F  
Max Temperature 44 °F 52 °F 85 °F (1916)
Min Temperature 20 °F 24 °F -1 °F (1989)
Degree Days  
Heating Degree Days 34    
Moisture  
Dew Point 16 °F    
Average Humidity 57    
Maximum Humidity 92    
Minimum Humidity 32    
Precipitation  
Precipitation 0.00 in 0.03 in 0.03 in (2014)
Month to date precipitation 0.01 0.15  
Year to date precipitation 1.20 1.12  
Sea Level Pressure  
Sea Level Pressure 30.37 in    
Wind  
Wind Speed 12 mph (NW)    
Max Wind Speed 24 mph    
Max Gust Speed 34 mph    
Visibility 10 miles    
Events      
T = Trace of Precipitation, MM = Missing Value Source: NWS Daily Summary

Daily Weather History Graph

Daily Weather History Graph

Search for Another Location

Airport:

Trip Planner

Search our weather history database for the weather conditions in past years. The results will help you decide how hot, cold, wet, or windy it might be!

Date:

Astronomy

Mar. 05, 2013 Rise Set
Actual Time 7:05 AM CST 6:36 PM CST
Civil Twilight 6:38 AM CST 7:03 PM CST
Nautical Twilight 6:07 AM CST 7:34 PM CST
Astronomical Twilight 5:36 AM CST 8:05 PM CST
Moon 2:18 AM CST (3/5) 12:18 PM CST (3/5)
Length of Visible Light 12h 24m
Length of Day
11h 30m
Last Quarter, 40% of the Moon is Illuminated
Mar 5
Last Quarter
Mar 11
New
Mar 19
First Quarter
Mar 27
Full
Apr 2
Last Quarter

Hourly Weather History & Observations

Time (CST) Temp. Windchill Dew Point Humidity Pressure Visibility Wind Dir Wind Speed Gust Speed Precip Events Conditions
1:53 AM 26.1 °F 16.8 °F 14.0 °F 60% 30.26 in 10.0 mi NW 9.2 mph - N/A   Clear
2:53 AM 25.0 °F 15.5 °F 15.1 °F 66% 30.27 in 10.0 mi WNW 9.2 mph - N/A   Clear
3:53 AM 25.0 °F 14.2 °F 15.1 °F 66% 30.27 in 10.0 mi WNW 11.5 mph - N/A   Clear
4:53 AM 26.1 °F 13.6 °F 14.0 °F 60% 30.29 in 10.0 mi NW 16.1 mph - N/A   Clear
5:53 AM 26.1 °F 13.1 °F 12.9 °F 58% 30.32 in 10.0 mi NW 17.3 mph 25.3 mph N/A   Clear
6:53 AM 25.0 °F 12.2 °F 14.0 °F 63% 30.34 in 10.0 mi NW 16.1 mph 23.0 mph N/A   Clear
7:53 AM 26.1 °F 13.6 °F 14.0 °F 60% 30.37 in 10.0 mi NW 16.1 mph - N/A   Clear
8:53 AM 28.9 °F 14.8 °F 14.0 °F 54% 30.38 in 10.0 mi NNW 24.2 mph 33.4 mph N/A   Clear
9:53 AM 30.9 °F 18.7 °F 14.0 °F 50% 30.40 in 10.0 mi NNW 19.6 mph 34.5 mph N/A   Clear
10:53 AM 34.0 °F 21.8 °F 15.1 °F 46% 30.41 in 10.0 mi North 23.0 mph 31.1 mph N/A   Clear
11:53 AM 36.0 °F 24.7 °F 16.0 °F 44% 30.41 in 10.0 mi NNW 21.9 mph 27.6 mph N/A   Clear
1:53 PM 41.0 °F 31.9 °F 18.0 °F 40% 30.38 in 10.0 mi NW 19.6 mph 25.3 mph N/A   Clear
2:53 PM 43.0 °F 35.4 °F 17.1 °F 35% 30.36 in 10.0 mi NNW 16.1 mph 23.0 mph N/A   Clear
3:53 PM 44.1 °F 36.8 °F 16.0 °F 32% 30.36 in 10.0 mi NNW 16.1 mph - N/A   Clear
4:53 PM 44.1 °F 38.6 °F 16.0 °F 32% 30.35 in 10.0 mi NNW 10.4 mph - N/A   Clear
5:53 PM 41.0 °F 35.2 °F 17.1 °F 38% 30.37 in 10.0 mi NNW 9.2 mph - N/A   Clear
6:53 PM 30.9 °F 25.2 °F 17.1 °F 57% 30.40 in 10.0 mi North 5.8 mph - N/A   Clear
7:53 PM 28.0 °F - 18.0 °F 66% 30.40 in 10.0 mi Calm Calm - N/A   Clear
8:53 PM 28.0 °F - 18.0 °F 66% 30.41 in 10.0 mi Calm Calm - N/A   Clear
9:53 PM 21.9 °F - 19.0 °F 89% 30.43 in 10.0 mi Calm Calm - N/A   Clear
10:53 PM 19.9 °F - 18.0 °F 92% 30.44 in 10.0 mi Calm Calm - N/A   Clear
11:53 PM 21.0 °F - 17.1 °F 85% 30.43 in 10.0 mi Calm Calm - N/A   Clear